カタログに戻る

COSMOS 970 DEB

運用中LEO
NORAD 10562·DEBRIS·🇷🇺 Russia

打ち上げ Dec 21, 1977 から Baikonur Cosmodrome

Loading…

次のパス (今後24時間)

TLE

最新Source: Space-Track

元期: Sep 13, 2026, 21:25 UTC

1 10562U 77121D   26256.89245696  .00000045  00000-0  22135-3 0  9997
2 10562  65.8690  64.1672 0085410  39.3200 125.1010 13.36819846373362

AllMySatでCOSMOS 970 DEBをリアルタイム追跡

Download on the App Store